Regional Weather Roundup
Issued by NWS Green Bay, WI

Home | Current Version | Previous Version | Graphics & Text | Print | Product List | Glossary Off
Versions: 1 2 3 4 5 6 7 8 9 10 11 12 13 14 15 16 17 18 19 20 21 22 23 24 25 26 27 28 29 30 31 32 33 34 35 36 37 38 39 40 41 42 43 44 45 46 47 48 49 50

000
ASUS43 KGRB 241710
RWRGRB

NORTH-CENTRAL AND NORTHEAST WISCONSIN REGIONAL WEATHER ROUNDUP
NATIONAL WEATHER SERVICE GREEN BAY WI
1200 PM CDT THU APR 24 2014

WIZ005-009-010>012-018-019-241800-
NORTH CENTRAL WISCONSIN

CITY           SKY/WX    TMP DP  RH WIND       PRES   REMARKS
IRONWOOD       CLOUDY    39  30  70 SE12G21   29.89F
MANITOWISH WTR LGT SNOW  33  32  96 E10       29.92F
ARBOR VITAE    LGT SNOW  37  34  90 SE12G21   29.92F
EAGLE RIVER    LGT SNOW  34  33  96 SE10      29.95F
LAND O LAKES   LGT RAIN  36  32  85 SE7       29.96F
RHINELANDER    LGT SNOW  33  31  92 E13       29.94F FOG
PHILLIPS       LGT RAIN  33  32  96 E7        29.87F
ANTIGO         LGT SNOW  33  32  98 E16G22    29.94F
TOMAHAWK       LGT RAIN  34  32  94 E9        29.90F
MERRILL        LGT RAIN  37  36  95 SE12G21   29.90F
$$

WIZ013-073-241800-
NORTHEAST WISCONSIN

CITY           SKY/WX    TMP DP  RH WIND       PRES   REMARKS
IRON MOUNTAIN  LGT RAIN  40  30  67 SE12G21   30.01F
MARINETTE      CLOUDY    37  30  75 SE6       30.04F
OCONTO         CLOUDY    38  36  92 E5        30.03F
$$

WIZ017-030-035>037-045-241800-
CENTRAL WISCONSIN

CITY           SKY/WX    TMP DP  RH WIND       PRES   REMARKS
MEDFORD        LGT RAIN  37  35  92 E17G24    29.85F
WAUSAU         MIX PCPN  37  35  92 E15       29.89F FOG
MOSINEE        LGT RAIN  37  37 100 E14G21    29.90F
MARSHFIELD     LGT RAIN  40  37  89 SE15      29.85F FOG
WISC RAPIDS    LGT RAIN  42  38  85 E14G20    29.88F
STEVENS POINT  CLOUDY    38  37  95 E17       29.89F
WAUPACA        LGT RAIN  45  39  81 E9        29.93F
SHAWANO        RAIN      40  37  89 E8        29.99F
CLINTONVILLE   LGT RAIN  39  37  93 E12G18    29.96F
$$

WIZ038-039-048-051-241800-
FOX VALLEY

CITY           SKY/WX    TMP DP  RH WIND       PRES   REMARKS
NWS GREEN BAY  LGT RAIN  42  39  89 E10       29.99F
APPLETON       CLOUDY    43  39  87 E7        29.96F
OSHKOSH        CLOUDY    44  37  76 E12       29.93F
FOND DU LAC    CLOUDY    46  36  68 SE15G22   29.92F
$$

WIZ022-050-052-241800-
EAST CENTRAL WISCONSIN

CITY           SKY/WX    TMP DP  RH WIND       PRES   REMARKS
STURGEON BAY   CLOUDY    39  32  75 SE7       30.05F
MANITOWOC      CLOUDY    41  38  89 E16       29.99F
SHEBOYGAN      CLOUDY    42  35  76 E15       29.97F
$$

LMZ563-521-522-541>543-241800-
LAKESHORE

STATION/POSITION TIME  TEMP    WIND        PRES    VSBY  WAVE
                       AIR SEA DIR/SP/G                  HT/PER
                 (UTC) (F)     (DEG/KT/KT) (MB)    (MI)  (FT/S)
SHEBOYGAN LKSHOR 1700   40     100/ 21/ 22 1015.5F
KEWAUNEE LKSHORE 1700   36     120/  5/  7 1017.8S
NORTHPORT PIER   1700   36     120/  4/  5 1018.3F
SISTER BAY LKSHO 1700   45     140/  7/  9   N/A
MENOMINEE LKSHOR 1700   33      20/  4/  5 1018.2F
$$



USA.gov is the U.S. government's official web portal to all federal, state and local government web resources and services.